IRIDIUM 33 DEB

Satellite information

Favourite Embed

Satellite Type and Status

DEBRISIN ORBIT

Key statistics

Satellite IRIDIUM 33 DEB at a glance.

Uptime

10219

Days in orbit

Revolutions

≈ 14.4

Per day

Orbit

LEO

Low Earth Orbit

Inclination

86.3

Latest

Satellite identification and parameters

Extended collection of information and parameters for IRIDIUM 33 DEB.

Object identification

Identified? True

Debris? True

Object name: IRIDIUM 33 DEB

International designator: 1997-051US

Object number (NORAD): 36011

Object ID (CCSDS): 36011

Country: UNITED STATES OF AMERICA (US)

Current information (Y/N): Y

RCS size: SMALL

Orbital parameters

Period: 99.944 minutes

Inclination: 86.3352 deg

SMA: 7133.97 km

Apoapsis: 768.632 km

Periapsis: 743.037 km

RAAN: 80.0379 deg

Eccentricy: 0.00179392

Argument of periapsis: 198.9047 deg

Mean anomaly: 222.7966 deg

Mean motion: 14.40807252 rev/day

Mean motion (dot): 0.00002009 rev/day2

B* drag term: 0.00062059759 1/REarth

Two-line elements (TLE)

Creation date: Aug. 31, 2025, 2:26 a.m.

Reference frame: TEME

Reference center: EARTH

Epoch: Aug. 30, 2025, 8:20 p.m. UTC

TLE line 0: 0 IRIDIUM 33 DEB

TLE line 1: 1 36011U 97051US 25242.84739793 .00002009 00000-0 62060-3 0 9996

TLE line 2: 2 36011 86.3352 80.0379 0017939 198.9047 222.7966 14.40807252630448

Live tracking on map

Real-time ground track for satellite IRIDIUM 33 DEB.

In-orbit conjunctions

A list of the most updated potential collisions computed for object IRIDIUM 33 DEB.

Target Orbit TCA Probability of collision Miss distance Type
CZ-6A DEB LEO 2025-01-30 00:16:24 0.0001679896 566.0 (m) DEBRIS
FENGYUN 1C DEB SSO 2024-11-11 14:05:31 0.0001667704 560.0 (m) DEBRIS
CZ-6A DEB LEO 2024-10-09 22:48:24 0.0004025312 185.0 (m) DEBRIS

Associated space launch

Iridium provides global mobile telecommunications services using a constellation of 66 low earth orbit satellites in a 86.4° inclined orbit. Although 77 satellites were originally envisioned for the system and spawned the name based on the 77th element in the periodic table, the system has been scaled back. Motorola's Satellite Communications Group designed and manufactured the Iridium satellites with Lockheed Martin providing the LM-700A spacecraft buses.

IRIDIUM 33 DEB was lifted into orbit during the mission ‘Proton-K/17S40 | Iridium 27 to 33’, on board a Proton-K/17S40 space rocket.

The launch took place on Sept. 14, 1997, 1:36 a.m. from 81/23 (81L).

For more information about the launch, click the button.

Launch to space Proton-K/17S40 | Iridium 27 to 33
Proton-K/17S40 | Iridium 27 to 33

Agency: N/A

Status: Launch Successful

Launch date: Sept. 14, 1997, 1:36 a.m. UTC

Rocket: Proton-K/17S40

Launch pad: 81/23 (81L)

Location: Baikonur Cosmodrome, Republic of Kazakhstan

...

Latest news about this satellite

There are no fresh news available about this satellite. Check back as we update our databases every day.


Newsletter sign-up

Weekly statistics, charts and insights to help you stay on top of the space industry.